GEFSSE_500_meanwind_060.txt.gz
Wind_Speed
9 10 11 12 14 15 17 18 20 21 23 24 25 26 27 28 29 30 31 32 33 35 37 39 41 42 43 43 43 42 41 40 38 36 34 32 30 28 26 25 25 25 26
10 11 13 15 16 18 20 22 23 25 26 28 29 31 32 32 33 34 35 35 36 36 37 38 39 41 43 45 46 46 46 45 43 41 39 37 35 33 30 29 27 27 27
12 14 16 18 20 22 24 26 28 29 31 32 34 35 36 37 38 38 39 40 40 40 40 41 41 41 42 44 46 47 49 49 48 47 45 43 40 38 35 33 31 30 29
16 18 20 22 24 26 28 30 32 33 35 36 37 39 40 41 42 43 44 44 45 45 45 45 45 45 45 45 46 47 49 50 51 51 50 48 46 43 41 38 35 33 32
20 23 25 26 28 30 32 34 36 37 39 40 42 43 44 45 47 47 48 49 49 50 50 50 50 50 50 50 49 49 49 50 51 53 54 53 51 49 46 43 40 38 36
25 27 29 30 32 34 36 38 39 41 43 45 46 48 49 50 51 52 53 54 54 54 55 55 55 55 55 55 54 54 53 52 52 53 55 56 56 54 52 49 46 43 40
29 30 32 34 36 37 39 41 43 45 47 49 51 53 55 56 57 58 59 60 60 61 60 60 60 60 60 59 59 59 58 57 56 55 55 57 58 58 57 55 52 49 45
31 33 35 36 38 40 43 45 47 50 52 54 56 58 60 62 63 65 66 67 67 67 67 67 66 66 65 64 64 64 63 62 61 60 59 58 58 59 59 59 57 54 51
33 35 37 39 42 44 47 49 52 54 57 59 62 64 67 69 71 72 73 74 75 75 75 75 74 73 72 70 69 68 68 67 67 65 64 63 61 61 61 61 61 59 56
34 37 39 42 45 48 50 53 56 59 62 65 68 71 73 75 77 79 80 81 81 82 82 81 81 80 79 77 76 74 73 72 72 71 69 68 66 64 63 63 63 62 61
36 39 42 45 48 51 54 57 60 63 67 70 73 75 78 80 82 84 85 87 87 87 87 87 86 85 84 83 82 81 79 78 77 76 75 73 71 69 67 66 65 65 64
38 41 45 48 51 54 57 60 64 67 70 73 76 79 82 85 87 89 90 91 92 92 92 92 92 91 90 89 87 86 85 84 82 81 79 78 77 75 73 70 68 67 66
41 44 47 51 54 57 60 64 67 71 74 77 80 84 87 90 92 93 94 94 94 94 94 94 94 95 94 94 92 91 90 89 88 86 84 83 82 80 78 75 73 71 69
43 47 50 53 57 60 64 67 71 74 78 81 85 89 92 93 95 95 94 94 92 91 91 90 90 91 93 94 94 94 94 93 92 91 89 87 86 85 83 81 78 76 73
46 49 53 56 59 63 67 71 74 79 83 87 91 93 95 95 94 92 89 86 84 83 82 82 82 82 84 86 89 92 94 95 96 96 94 93 91 90 88 86 84 81 78
48 52 55 58 62 66 70 74 78 83 87 91 93 94 93 91 87 83 80 77 75 74 74 73 73 74 75 76 79 83 87 91 94 96 97 96 95 94 93 91 89 86 84
50 54 57 61 65 69 73 77 81 86 89 92 92 90 87 82 78 74 72 71 69 68 67 67 66 67 67 68 71 74 79 83 88 93 96 98 98 98 97 96 94 91 89
52 55 59 64 68 72 76 80 84 88 90 90 88 84 79 75 72 70 68 66 65 64 63 62 61 61 61 62 63 65 70 75 80 86 91 96 99 101 101 100 98 96 93
53 57 61 66 70 74 78 82 86 88 89 87 82 77 73 71 69 67 65 64 62 61 60 59 59 59 58 58 58 59 62 67 72 78 85 91 97 100 103 104 102 100 98
56 60 64 67 71 75 79 83 86 87 86 82 77 73 70 68 66 64 63 61 60 59 59 58 58 57 57 56 55 54 56 59 64 70 77 85 92 98 102 105 106 105 103
58 62 65 69 73 76 80 83 85 85 82 78 74 70 68 66 64 62 61 60 60 59 59 59 58 56 55 55 54 52 52 54 58 63 69 77 86 93 99 104 107 108 107
59 63 67 70 74 77 81 83 84 82 78 74 70 68 66 64 62 61 61 61 61 60 60 59 57 55 54 54 53 52 50 50 54 57 62 69 78 86 94 101 106 110 110
61 64 68 71 74 78 81 82 82 79 76 71 68 65 64 63 61 61 62 62 61 61 60 58 57 56 54 53 53 52 51 50 50 53 57 62 69 78 87 95 103 108 111
62 65 68 72 75 78 80 81 79 76 72 69 65 64 63 62 61 62 63 62 62 61 60 58 57 56 54 52 52 52 52 51 50 49 53 56 62 70 79 88 97 105 110
63 66 69 72 75 78 79 80 77 74 70 67 64 63 62 61 62 63 63 62 61 60 59 57 55 52 50 48 47 48 50 51 50 49 49 53 57 63 71 81 90 99 107
63 66 69 72 75 77 78 78 75 72 68 65 63 62 61 61 62 63 63 62 60 59 57 55 52 48 45 42 41 43 46 48 50 48 47 49 53 57 64 73 82 92 101

GEFSSE_500_meanwind_066.txt.gz
Wind_Speed
10 11 12 14 15 16 18 19 21 23 24 26 27 29 30 31 33 34 35 36 36 37 37 38 38 38 39 39 40 41 41 41 41 42 41 40 38 35 32 29 28 27 27
12 13 15 16 18 19 21 23 25 26 28 30 31 33 34 35 37 38 39 40 40 41 41 42 42 42 42 42 42 42 42 43 43 44 45 44 43 41 38 35 33 31 30
14 16 18 20 21 23 25 26 28 30 31 33 35 36 38 39 41 42 43 44 44 45 46 46 47 47 47 47 46 46 45 45 45 46 47 47 47 46 44 41 38 36 34
19 20 22 23 25 26 28 29 31 32 34 36 38 39 41 42 44 45 46 47 48 49 50 50 51 51 51 52 51 51 50 49 48 49 49 49 49 49 48 47 44 41 39
22 23 25 26 27 28 30 31 33 35 36 38 40 42 44 45 47 49 50 51 52 53 54 54 55 55 55 56 56 56 55 54 54 53 53 52 51 52 51 51 50 47 44
24 25 26 27 28 30 31 33 35 37 39 41 43 45 47 49 51 53 54 56 57 58 59 60 61 61 61 60 60 60 60 59 59 58 58 56 55 54 54 54 53 52 49
24 25 26 28 29 31 33 35 37 39 41 44 46 48 51 53 56 58 60 62 64 65 66 67 68 68 68 67 66 66 65 64 64 63 63 62 60 59 57 56 56 55 54
25 26 27 29 31 33 35 38 40 42 45 47 50 53 56 59 62 64 67 69 71 73 74 76 76 76 76 75 74 73 71 70 69 68 68 67 66 65 62 60 59 58 57
26 27 29 31 33 35 38 40 43 46 49 52 55 58 61 64 68 71 74 76 79 81 82 84 85 85 85 84 83 81 79 77 76 74 73 72 71 70 68 65 63 62 61
27 29 31 33 36 38 40 43 46 49 52 56 59 62 66 69 73 76 80 84 87 89 91 93 94 95 95 94 93 91 88 85 83 81 79 77 76 75 73 71 69 66 64
29 31 33 35 38 40 43 46 49 52 56 59 63 66 70 74 77 81 85 89 93 96 99 101 103 104 104 103 102 101 99 96 92 88 85 83 82 80 79 77 75 72 69
30 33 35 37 40 43 46 49 52 56 59 62 66 70 73 77 81 86 90 95 99 102 104 106 106 106 105 105 104 104 104 103 100 97 93 90 88 86 84 82 80 78 75
32 35 37 40 42 46 49 52 55 58 62 65 69 73 77 81 86 90 95 99 102 103 103 101 98 96 95 95 95 96 98 100 102 101 99 96 94 91 89 87 85 83 81
34 37 39 42 45 48 51 54 57 61 64 68 72 76 80 85 89 94 97 99 99 97 92 87 84 81 80 79 80 81 83 86 91 95 98 99 98 96 94 93 91 89 86
36 39 42 44 47 50 53 56 59 63 67 70 74 79 83 88 92 95 96 95 91 84 78 73 70 68 67 67 68 70 71 74 78 83 90 95 98 99 99 97 96 94 92
38 41 44 47 49 53 55 58 61 65 69 72 77 82 86 90 92 93 92 86 79 73 69 67 65 63 62 62 62 63 64 66 69 73 79 86 93 98 100 101 100 99 97
41 43 46 49 51 54 57 60 63 67 70 75 79 84 88 90 91 90 85 78 73 69 67 65 64 62 61 61 61 61 61 62 64 67 72 78 85 93 99 102 104 103 102
43 45 48 51 53 56 58 62 65 69 72 77 81 86 88 89 88 84 78 73 70 67 66 65 64 64 63 63 62 62 63 63 63 65 67 72 79 86 94 101 105 106 105
45 47 49 52 54 57 60 64 67 70 74 79 83 86 87 87 84 78 74 70 67 66 66 65 65 65 64 63 63 63 63 64 65 65 67 69 74 80 89 97 104 107 108
46 49 51 53 56 59 62 65 68 72 76 80 83 85 85 83 79 75 71 68 66 66 66 65 64 64 64 64 63 63 63 64 64 66 67 69 71 76 84 93 101 107 110
48 50 52 54 57 60 63 66 69 73 77 80 83 84 83 80 76 72 68 66 66 66 66 64 64 64 62 63 63 61 60 61 62 65 67 68 70 74 79 87 96 104 110
49 51 53 55 58 60 63 67 70 73 77 80 82 82 80 76 73 70 67 66 66 66 65 64 64 63 61 61 61 59 56 53 56 60 64 67 70 72 76 81 90 99 107
50 52 54 56 58 61 64 67 71 74 77 80 81 80 78 74 71 68 66 66 65 65 64 63 63 61 59 56 56 55 53 48 46 51 58 64 68 70 73 77 84 94 103
51 53 55 57 59 61 65 68 71 74 77 79 80 78 75 72 70 67 66 65 64 64 63 62 61 59 58 55 52 49 47 45 41 41 49 57 63 67 70 74 80 87 96
52 53 55 57 60 62 65 68 71 74 77 79 79 76 73 70 68 66 65 64 64 63 62 61 59 57 56 54 51 47 43 39 36 35 39 48 56 62 66 70 74 80 89
53 55 57 59 61 63 66 69 72 74 77 78 77 75 71 69 67 65 64 63 63 63 61 59 57 55 54 51 48 45 42 36 32 29 30 38 47 55 61 65 69 74 81

GEFSSE_500_meanwind_072.txt.gz
Wind_Speed
7 9 10 11 13 14 16 17 18 20 21 22 23 25 26 27 28 29 30 31 32 33 33 34 35 36 36 37 37 38 38 38 37 38 38 39 39 38 38 38 37 35 32
10 12 13 15 16 17 18 19 20 21 22 24 25 26 27 29 30 31 32 33 34 35 36 37 38 39 40 41 41 42 42 42 42 42 42 42 42 42 42 42 41 40 38
13 14 16 17 18 19 19 20 21 23 24 25 26 28 29 31 32 34 35 36 37 39 40 41 42 43 44 45 46 46 47 47 47 47 47 47 46 46 45 45 45 44 43
15 16 17 18 18 19 20 21 23 24 25 27 28 30 31 33 34 36 37 39 41 42 44 45 46 48 49 50 51 51 52 52 52 52 52 52 52 51 50 49 49 48 47
16 16 17 18 19 20 21 22 24 25 27 28 30 32 33 35 37 39 41 42 44 46 48 49 51 52 54 55 55 56 57 57 57 58 58 58 57 57 56 54 53 52 51
16 17 18 19 20 21 23 24 26 27 29 30 32 34 36 38 40 42 44 46 48 50 52 54 56 58 60 61 61 62 63 63 62 63 63 63 63 63 62 60 58 57 56
16 18 19 20 21 23 25 26 28 29 31 33 35 37 39 41 43 45 48 50 53 55 58 60 63 65 67 68 70 71 71 70 70 69 69 69 69 69 68 67 65 62 61
18 19 20 22 24 25 26 28 29 31 33 36 38 40 42 44 46 49 52 55 58 60 63 66 69 72 74 76 78 79 79 79 79 78 77 76 75 75 74 73 71 68 66
20 21 22 24 25 27 28 30 32 34 36 38 40 43 45 47 50 53 56 59 63 66 69 72 76 79 82 85 86 88 88 89 88 87 85 83 82 81 81 80 78 75 72
21 23 24 25 27 28 30 32 34 37 39 41 43 45 48 50 53 56 60 63 66 70 73 78 82 85 89 92 95 96 97 97 97 96 94 93 91 89 87 86 84 82 79
23 24 25 27 29 31 33 35 37 40 42 44 46 48 51 53 56 59 62 66 69 73 77 82 86 90 94 97 100 102 103 104 104 103 102 101 99 98 96 94 91 89 86
24 25 27 29 31 33 35 37 40 42 44 46 48 51 53 56 59 61 65 68 72 76 80 85 89 94 97 100 102 104 104 104 103 102 101 101 101 101 101 101 99 96 93
25 27 29 31 33 35 37 40 42 44 46 48 50 53 55 57 60 63 66 70 74 78 83 87 92 95 97 98 98 96 93 91 89 88 89 91 95 99 101 103 104 102 100
27 29 31 33 35 37 39 42 44 46 48 50 52 54 56 59 62 65 68 72 76 81 85 89 92 93 93 92 88 84 80 77 76 75 76 78 82 88 94 99 103 105 104
28 30 32 34 36 38 41 43 45 47 49 51 53 55 57 59 62 65 69 74 78 82 86 88 89 89 87 83 79 75 72 71 70 70 69 70 72 76 82 90 97 103 106
29 31 33 35 37 39 41 43 45 47 49 51 53 55 57 60 63 66 71 75 79 83 85 86 86 84 81 76 72 70 69 69 68 68 68 68 69 71 75 81 89 96 103
29 31 33 34 36 39 41 43 45 47 49 51 53 55 58 60 64 67 71 76 80 82 84 84 82 79 75 71 69 68 68 67 67 67 68 68 69 70 73 77 83 90 97
29 31 33 34 36 39 41 43 45 47 49 51 53 56 58 61 64 68 72 76 80 81 82 80 78 74 71 69 68 67 67 66 66 66 67 68 70 72 74 76 80 86 93
29 31 33 35 37 39 41 44 46 48 50 52 54 56 59 62 65 69 73 77 79 80 80 78 74 71 69 68 66 65 64 63 63 64 65 67 69 71 74 77 80 84 90
29 32 34 36 38 40 43 45 47 49 51 53 55 57 60 63 67 70 74 77 78 78 77 75 71 69 68 67 65 63 61 60 61 61 61 62 65 69 73 77 80 84 88
30 33 35 37 39 42 44 47 49 51 53 55 57 59 61 64 68 71 74 77 77 76 74 72 69 68 67 66 65 61 57 57 57 56 56 57 58 62 67 74 80 84 87
31 33 36 38 41 43 46 48 51 53 55 57 58 60 63 66 69 72 75 76 76 74 72 70 68 67 65 65 64 62 58 53 50 50 51 52 53 55 59 67 76 82 86
32 35 37 40 42 45 47 50 52 55 57 59 61 62 64 67 70 72 75 75 74 72 70 68 67 67 64 62 62 62 61 58 52 46 46 46 46 47 50 58 68 78 85
33 36 39 42 44 47 49 52 54 57 59 61 62 64 66 68 71 73 75 74 73 71 69 67 66 66 64 60 58 58 58 58 57 50 43 41 41 40 42 48 59 71 81
35 37 40 43 46 49 51 54 56 59 61 63 64 65 67 69 71 73 74 73 71 69 67 66 65 64 63 60 58 56 54 53 53 52 46 39 35 34 35 39 48 61 74
36 39 42 45 48 51 53 55 58 60 62 64 66 66 68 70 71 73 73 72 70 68 66 64 64 63 61 59 57 55 54 52 49 47 45 39 33 29 28 30 37 49 64

GEFSSE_500_meanwind_078.txt.gz
Wind_Speed
5 7 8 9 11 12 13 14 15 16 17 18 18 19 19 20 20 21 21 22 22 23 24 25 25 26 26 27 27 28 28 28 29 30 31 32 32 32 32 32 31 31 31
8 10 11 12 13 14 15 16 17 18 18 19 20 20 21 22 22 23 24 25 25 26 27 27 28 29 30 30 31 31 32 32 33 34 35 36 36 36 35 36 36 36 35
11 12 13 14 15 16 16 17 18 19 20 20 21 22 23 24 24 25 26 27 28 29 30 30 31 32 33 34 35 35 36 36 37 38 39 40 41 41 40 40 40 40 40
12 13 14 15 16 16 17 18 20 21 21 22 23 24 25 26 27 28 29 30 31 32 33 33 34 35 36 37 38 39 40 40 41 42 43 44 45 46 46 45 45 45 45
13 14 15 15 17 18 19 20 21 22 23 24 24 25 27 28 29 31 32 33 34 35 35 36 37 38 39 40 41 42 43 44 45 46 47 48 49 50 51 51 51 51 50
13 14 15 17 18 19 20 21 22 23 24 25 27 28 29 30 32 33 34 35 36 37 38 39 40 42 43 44 45 46 47 48 49 50 51 52 54 55 56 56 56 56 56
14 15 17 18 19 20 21 22 24 25 26 27 29 30 31 33 34 35 36 37 38 39 41 42 43 45 46 47 49 50 51 52 54 55 56 57 58 59 60 61 62 62 62
15 16 18 19 20 21 23 24 25 26 28 29 30 32 33 34 36 37 38 40 41 42 43 45 47 48 49 51 52 53 55 57 58 60 62 64 65 66 67 68 68 68 68
16 18 19 20 21 22 24 25 26 27 29 30 32 33 34 36 37 39 40 41 43 44 46 48 49 51 53 54 56 58 59 61 63 65 67 69 71 73 75 76 76 76 76
17 19 20 21 22 23 24 26 27 28 30 31 32 34 35 37 38 39 41 43 44 46 48 50 52 53 55 57 59 61 63 66 68 71 73 76 78 80 81 83 84 84 84
18 20 21 22 23 24 25 26 28 29 30 32 33 34 36 37 39 41 42 44 46 48 50 51 53 55 57 60 62 64 67 69 73 76 79 82 84 86 88 90 91 92 91
19 20 21 23 23 24 26 27 28 30 31 33 34 36 37 39 40 42 44 46 47 49 51 53 55 57 59 61 64 66 69 73 77 80 84 87 89 92 95 96 97 98 97
20 21 22 23 24 25 26 28 29 31 32 34 35 37 38 40 42 43 45 47 49 50 52 54 56 58 60 63 66 68 72 76 80 83 86 89 92 94 95 95 95 96 97
20 21 22 24 25 26 28 29 30 32 34 35 37 38 40 42 43 45 46 48 50 51 53 55 57 59 62 64 67 70 74 78 82 85 88 90 91 90 89 87 87 88 90
20 22 23 25 26 27 28 30 32 33 35 37 38 40 41 43 44 46 48 49 51 52 54 56 58 60 63 66 69 72 76 80 84 86 88 88 87 85 83 81 79 79 80
21 22 24 25 27 28 29 31 33 34 36 38 39 41 42 44 45 47 49 50 51 53 55 57 59 61 64 67 70 74 78 82 85 86 86 85 83 81 79 77 75 75 76
21 23 24 26 27 29 30 32 34 35 37 39 40 42 43 45 46 48 50 51 53 54 56 58 61 63 65 68 72 76 79 82 84 84 83 82 80 77 76 74 73 73 74
22 23 24 26 27 29 31 33 35 36 38 40 41 43 45 46 48 49 51 53 54 56 58 60 62 65 67 70 73 77 80 81 82 81 80 78 76 75 73 71 70 70 71
22 23 25 26 27 29 31 33 35 37 39 41 43 44 46 48 49 50 52 54 56 58 59 62 64 66 68 71 74 77 79 79 79 78 76 75 74 73 71 69 68 68 69
23 24 25 27 28 30 32 34 36 39 41 43 44 46 48 49 51 52 53 55 57 59 61 63 66 68 70 72 75 77 77 77 77 75 74 73 71 70 68 66 65 65 66
25 26 27 28 30 31 33 35 38 40 42 44 46 48 50 51 53 54 55 57 59 61 63 65 67 69 72 74 75 76 75 74 73 72 71 70 69 67 65 63 61 60 60
27 28 29 30 32 33 35 37 39 42 44 46 48 50 52 53 55 56 57 59 61 63 65 67 69 71 73 75 77 77 75 71 69 67 67 67 66 65 63 60 57 55 53
29 30 32 33 34 36 37 40 42 44 46 48 50 52 53 55 56 58 59 61 63 65 67 68 70 72 74 76 77 78 77 74 70 65 63 63 63 61 60 58 54 51 48
32 33 34 36 37 39 40 42 45 47 48 50 52 54 55 57 58 60 61 63 65 67 68 70 72 73 74 75 76 76 76 75 73 68 62 60 59 59 58 56 52 49 45
35 36 37 38 40 42 44 45 47 49 51 52 54 56 57 58 60 61 63 64 66 68 70 71 73 74 75 75 75 74 73 72 72 72 66 60 56 56 56 54 51 48 43
37 39 40 41 43 45 46 48 50 51 53 55 56 57 59 60 61 62 64 66 67 69 71 72 73 74 75 74 74 73 72 71 70 70 68 62 57 53 53 52 50 47 42

GEFSSE_500_meanwind_084.txt.gz
Wind_Speed
3 4 5 6 6 7 8 9 9 10 10 11 12 12 13 14 15 16 17 17 18 18 19 20 20 20 21 21 22 22 23 23 23 24 24 23 23 23 23 24 24 24 24
6 7 7 8 8 9 9 10 10 11 11 12 13 14 15 16 16 17 18 19 19 20 21 22 22 23 23 24 24 25 25 26 26 26 27 27 27 27 27 27 27 27 28
8 8 8 9 9 9 10 10 11 12 13 14 15 16 16 17 18 18 19 20 21 22 23 24 24 25 25 26 26 27 27 28 29 29 30 30 30 30 30 30 31 31 31
8 9 9 9 10 10 11 11 12 13 14 15 16 17 18 18 19 20 21 22 23 23 24 25 26 26 27 28 28 29 30 30 31 32 33 34 34 34 34 34 35 35 35
9 9 10 10 11 12 12 13 14 15 16 16 17 18 19 19 20 21 22 23 24 25 26 26 27 28 29 30 31 31 32 33 34 35 36 36 37 38 38 38 38 39 39
10 10 11 11 12 13 13 14 15 16 16 17 18 19 19 20 21 22 23 24 25 26 27 27 28 29 30 31 32 33 34 35 36 37 38 39 40 41 41 41 42 42 43
10 11 11 12 13 13 14 15 15 16 17 18 18 19 20 21 22 23 24 25 26 27 27 28 29 30 31 32 33 34 36 37 38 39 40 41 42 43 44 45 45 46 46
11 11 12 12 13 14 14 15 16 16 17 18 19 20 20 21 22 23 24 25 26 27 28 29 30 31 32 33 34 35 36 38 39 41 42 43 44 45 46 48 49 49 50
11 12 12 13 13 14 14 15 16 17 18 19 19 20 21 22 23 24 25 26 27 28 29 30 31 32 32 34 35 36 37 38 40 41 43 44 46 47 48 50 51 53 54
11 12 12 13 14 14 15 16 16 17 18 19 20 21 22 23 24 25 26 27 28 29 30 31 32 33 34 35 36 37 38 39 40 41 43 45 47 48 50 51 53 55 56
12 12 13 13 14 15 16 17 17 18 19 20 21 23 24 25 26 27 28 29 30 31 32 33 34 35 36 37 38 39 40 41 42 43 44 46 48 49 51 53 55 56 58
12 12 13 13 14 15 16 17 18 19 21 22 23 24 26 27 28 29 30 32 33 34 35 36 37 38 39 40 41 42 43 44 45 46 47 48 49 51 53 54 56 58 60
12 13 13 14 15 16 17 18 19 20 22 23 24 26 27 28 30 31 32 34 35 36 37 38 39 40 41 42 43 44 45 46 47 48 49 50 52 53 55 56 58 60 62
13 14 14 15 16 17 18 19 20 21 22 24 25 27 28 30 31 33 34 35 37 38 39 40 41 42 43 44 46 47 48 48 49 50 52 53 54 55 57 59 61 63 65
14 15 16 16 17 18 19 20 21 22 23 25 26 27 29 31 32 34 36 37 39 40 41 42 43 44 45 46 48 49 50 51 52 53 54 55 56 58 60 61 63 65 68
16 16 17 18 19 19 20 21 22 23 24 25 27 28 30 32 34 36 37 39 41 42 43 44 45 46 47 48 49 50 51 53 54 55 56 57 59 60 62 63 66 68 70
18 19 19 20 21 21 22 23 24 25 27 28 29 31 32 34 36 38 40 41 43 45 46 47 48 49 49 50 51 52 53 54 56 57 58 59 61 62 64 65 67 70 72
20 21 22 22 23 24 25 26 27 28 30 31 32 34 35 37 39 40 42 44 46 47 49 49 50 51 52 53 53 54 55 56 57 59 60 61 63 64 65 67 69 71 73
23 23 24 25 25 26 27 28 30 31 32 34 35 37 38 40 42 43 45 46 48 50 51 52 53 53 54 54 55 56 57 57 59 60 61 63 64 66 67 69 70 72 75
25 26 27 27 28 29 30 31 33 34 36 37 38 40 41 43 44 46 47 49 50 52 53 54 55 56 56 56 57 57 57 58 60 61 63 64 66 67 69 71 72 74 75
28 29 29 30 31 32 33 34 35 36 38 40 41 43 44 46 47 49 50 52 53 54 55 56 57 58 58 58 58 58 58 59 61 62 64 66 68 69 71 72 74 75 76
30 31 32 32 33 34 36 37 38 39 41 43 44 46 48 49 50 51 53 54 55 56 57 58 59 59 60 60 60 60 59 60 60 63 65 67 69 71 73 74 75 76 76
32 33 34 35 36 37 39 40 41 43 44 46 48 49 51 52 53 54 55 56 57 58 59 60 60 60 61 61 61 61 61 61 61 63 65 68 70 72 74 75 75 76 76
35 36 37 38 39 40 42 43 44 46 47 49 50 52 53 54 55 56 57 59 59 60 60 60 61 61 61 61 61 61 62 63 64 63 65 68 71 72 74 75 75 75 75
37 38 40 41 42 44 45 47 48 49 50 52 53 54 56 57 58 58 59 61 61 61 61 62 62 61 62 62 62 62 63 64 65 65 66 68 70 72 73 74 74 74 73
39 41 42 43 44 46 48 49 51 52 53 54 55 57 58 59 60 60 61 63 62 62 63 63 63 62 62 62 63 63 64 65 66 67 67 68 70 70 71 72 73 72 71

GEFSSE_500_meanwind_090.txt.gz
Wind_Speed
3 4 5 6 7 8 8 9 10 11 11 12 12 12 13 13 13 14 14 14 14 14 15 15 16 16 17 18 18 18 19 19 19 20 20 20 20 20 19 19 19 19 20
6 7 7 8 9 10 10 11 11 12 12 13 13 13 14 14 14 14 15 15 15 15 16 17 17 18 18 19 20 20 21 21 21 22 22 22 23 23 23 23 22 23 23
8 9 9 10 11 11 11 12 12 13 13 14 14 14 14 14 14 14 15 15 16 17 17 18 19 19 20 21 21 22 23 23 23 24 24 24 25 25 25 25 25 25 26
9 10 11 11 11 12 12 12 13 13 13 14 14 14 14 14 14 15 16 16 17 18 19 20 20 21 22 22 23 23 24 25 25 26 26 26 27 27 27 28 28 28 29
10 11 11 11 12 12 12 12 12 13 13 13 13 14 14 14 15 16 17 17 18 19 20 21 21 22 23 23 24 25 25 26 27 27 28 29 29 29 30 30 31 31 32
10 11 11 11 11 12 12 12 12 12 13 13 13 14 14 15 16 16 17 18 19 19 20 21 22 22 23 24 25 25 26 27 28 29 29 30 31 31 32 33 33 34 34
11 11 11 11 11 11 12 12 12 12 13 13 13 14 14 15 16 16 17 18 19 20 20 21 22 23 23 24 25 26 27 27 28 29 30 31 32 33 34 35 35 36 37
11 11 12 11 11 11 12 12 12 12 13 13 14 14 15 15 16 17 18 19 20 20 21 22 23 24 24 25 26 27 28 28 29 30 31 32 33 34 35 36 37 38 39
12 11 12 12 12 12 12 12 13 13 13 14 14 15 16 16 17 18 19 20 21 21 22 23 24 25 26 27 27 28 29 30 31 32 33 33 34 35 35 36 37 38 39
13 12 12 12 12 12 12 13 13 13 13 14 15 15 16 17 18 19 20 21 22 22 23 24 25 26 27 28 29 30 31 31 32 33 34 35 36 37 37 38 39 39 40
13 13 12 13 13 13 13 13 13 14 14 14 15 16 16 17 18 19 20 21 22 23 24 25 26 27 28 29 30 31 32 33 34 35 36 37 38 39 39 40 41 41 42
15 14 14 14 14 14 14 14 15 15 15 15 16 16 17 18 19 20 21 22 23 24 25 26 27 28 29 31 32 33 33 34 35 36 38 39 40 41 41 42 43 43 44
16 16 16 16 16 16 16 16 17 17 17 17 18 18 19 20 21 22 23 24 25 26 27 28 30 31 32 33 34 35 36 37 37 38 39 40 41 42 43 44 45 46 46
18 19 18 18 18 18 18 18 19 19 19 20 20 21 22 23 23 24 25 27 28 29 30 31 33 34 35 36 37 38 39 40 40 41 42 42 43 44 45 46 47 48 48
21 21 21 21 21 21 21 21 21 22 22 23 24 24 25 26 27 28 29 30 31 32 33 35 36 37 38 39 40 41 42 43 44 44 45 45 45 46 47 48 49 49 50
23 23 24 24 24 24 24 25 25 25 26 27 28 28 29 30 30 31 32 33 35 36 37 38 39 41 41 42 44 44 46 46 47 47 47 48 48 48 49 49 50 51 52
25 26 26 27 27 27 27 28 28 28 29 30 31 32 33 33 34 35 36 37 38 40 41 42 43 44 45 46 47 48 49 50 50 50 50 50 51 51 51 51 51 52 53
27 27 28 29 30 30 31 31 31 31 32 33 34 35 36 37 38 39 39 40 42 43 44 46 47 48 49 50 51 51 52 53 54 54 53 53 53 53 53 53 54 54 55
29 29 30 30 32 33 34 34 34 34 35 36 37 37 39 40 41 42 43 44 45 46 48 49 50 51 52 53 54 54 55 56 56 56 56 56 56 56 56 56 56 56 57
30 31 32 33 34 36 36 37 37 38 38 39 39 40 42 44 45 46 47 48 49 50 51 53 53 54 55 56 57 57 57 58 58 58 58 59 58 58 58 58 58 59 59
31 32 33 35 36 38 38 39 40 40 41 41 42 43 45 47 48 49 50 51 53 54 54 56 57 57 58 59 60 59 59 60 60 60 60 60 60 60 60 60 61 61 61
32 33 35 36 37 39 40 41 42 43 43 44 45 47 49 50 52 53 54 55 56 57 58 59 60 60 61 61 62 62 61 61 61 60 61 61 62 62 62 62 63 63 63
32 34 36 37 38 39 41 43 44 45 46 47 49 51 52 53 55 56 57 59 60 60 61 62 63 63 63 63 63 64 64 63 62 61 60 61 62 62 63 64 64 64 64
33 35 36 38 39 40 42 44 46 47 48 49 52 53 54 56 58 59 61 62 63 63 64 64 65 65 65 65 65 64 65 64 64 63 61 61 62 63 63 64 64 64 65
34 35 37 39 40 42 44 45 47 49 50 52 54 55 57 58 60 61 63 64 65 66 66 66 66 66 66 66 66 65 65 65 65 64 63 63 63 63 64 64 64 65 65
35 36 38 40 42 44 46 48 50 51 53 55 56 58 60 61 62 63 64 65 67 67 68 68 68 68 68 67 67 66 65 66 65 65 65 64 64 63 64 64 64 65 66

GEFSSE_500_meanwind_096.txt.gz
Wind_Speed
4 5 5 5 6 6 6 7 7 8 9 10 10 11 12 12 13 14 15 15 15 15 14 14 14 14 14 14 14 14 15 15 15 15 16 16 17 17 17 18 18 19 19
5 6 6 6 7 7 8 8 9 9 10 11 11 12 13 13 14 14 14 14 14 14 15 15 15 15 15 15 16 16 16 17 17 17 17 18 18 19 20 20 21 21 21
6 7 7 8 8 8 9 9 10 10 11 12 12 12 13 13 13 13 13 14 14 14 15 15 16 16 16 17 17 18 18 19 19 19 20 20 20 21 22 22 23 23 24
8 9 9 9 9 9 9 10 10 11 11 11 11 12 12 12 12 13 13 14 14 15 15 16 16 17 17 17 18 19 19 20 20 21 21 22 22 23 23 24 25 25 26
10 10 10 10 10 10 10 10 10 10 10 11 11 11 12 12 13 13 13 14 14 15 15 16 16 17 17 18 18 19 20 21 21 21 22 23 23 24 25 26 26 27 27
11 10 10 10 10 10 10 10 10 10 11 11 11 12 12 12 13 13 13 14 14 15 15 16 17 17 18 18 19 20 20 21 22 22 23 24 24 25 26 27 28 28 29
12 11 11 10 10 10 10 10 11 11 11 11 12 12 12 12 13 13 13 14 14 15 16 16 17 18 18 19 20 20 21 22 23 23 24 25 26 26 27 28 29 30 31
13 12 11 11 11 11 11 11 11 11 12 12 12 12 12 12 13 13 14 14 15 16 17 17 18 18 19 19 20 21 22 23 24 24 25 26 27 28 28 29 30 31 32
13 13 12 12 12 12 12 12 12 12 12 12 12 12 13 13 13 14 14 15 15 16 16 17 18 18 19 20 20 21 22 23 24 25 26 27 28 29 30 31 31 32 33
14 14 13 13 13 13 13 13 13 13 13 13 13 13 14 14 14 15 15 15 16 16 17 18 18 19 20 21 21 22 23 24 25 26 27 28 29 30 31 32 33 34 35
15 15 15 15 15 14 14 14 14 14 14 14 15 15 15 16 16 16 17 17 17 18 19 19 20 21 21 22 23 24 25 26 27 28 28 29 30 31 32 33 34 35 36
15 16 16 16 16 16 16 17 17 17 17 17 17 18 18 18 19 19 19 20 20 21 21 22 23 23 24 25 26 27 27 28 29 30 31 32 32 33 34 35 36 37 38
17 18 19 19 19 19 19 19 19 20 20 20 20 21 21 21 22 22 23 23 24 24 25 26 26 27 28 28 29 29 30 31 32 33 34 34 35 36 36 37 38 39 40
19 20 21 21 21 22 22 22 23 23 23 23 24 24 25 25 26 26 27 27 28 28 29 29 30 31 31 32 33 33 34 34 35 36 37 38 38 39 39 40 41 41 42
21 22 22 22 23 24 24 25 26 26 27 27 27 28 28 29 29 30 30 31 31 32 33 33 34 35 35 36 37 37 38 38 39 39 40 41 41 42 43 43 43 44 44
23 23 24 24 25 26 27 28 29 29 30 30 31 31 32 32 33 33 34 35 35 36 36 37 38 38 39 40 40 41 41 42 43 43 43 44 44 45 45 46 46 47 47
24 24 25 26 27 27 29 30 31 32 32 33 34 35 35 36 36 37 37 38 39 40 40 41 42 42 43 44 44 45 45 46 46 46 47 47 48 48 49 49 50 50 50
24 25 25 26 27 28 30 31 32 34 35 36 37 37 38 39 40 40 41 42 43 43 44 45 46 46 47 48 48 49 49 49 50 50 50 50 51 51 52 52 52 53 53
24 25 26 27 28 30 31 32 34 35 36 38 39 40 41 42 43 44 44 45 46 47 47 49 50 50 51 52 53 53 53 53 53 53 53 53 54 54 54 55 55 55 56
24 24 26 27 29 31 32 33 35 36 37 38 40 41 42 44 45 47 47 48 50 50 51 52 53 54 54 56 57 56 56 57 56 56 56 56 56 57 57 57 58 58 58
24 25 26 27 29 31 33 34 36 37 38 39 40 42 44 46 48 49 50 51 52 53 54 55 56 57 58 60 60 60 59 59 59 59 59 59 59 59 59 60 60 60 60
25 26 28 29 30 32 34 36 36 38 38 40 42 44 46 48 50 51 52 53 55 56 57 58 59 60 61 63 63 64 63 61 61 61 62 62 62 62 62 62 62 62 61
26 27 29 30 32 33 35 36 38 39 40 42 44 46 47 49 51 53 54 56 57 58 59 60 62 63 64 64 65 66 66 64 64 63 63 63 63 63 63 64 63 63 63
27 28 30 31 32 34 35 37 38 40 41 43 46 47 49 51 52 54 55 57 59 60 61 63 64 65 66 66 66 67 68 68 68 66 64 64 64 64 65 65 64 64 64
28 29 31 32 33 34 36 38 39 41 42 44 46 48 50 51 53 55 56 58 60 61 62 64 65 66 67 67 68 68 69 69 69 70 67 66 66 65 65 65 65 65 65
30 31 32 33 34 36 37 39 40 42 44 45 47 49 51 53 54 56 58 59 61 62 63 65 66 67 68 68 69 70 70 70 70 70 70 69 68 66 66 66 66 66 66

GEFSSE_500_meanwind_102.txt.gz
Wind_Speed
8 9 9 9 9 9 9 10 10 10 11 11 11 11 11 11 11 12 12 12 12 13 13 13 14 14 14 15 15 15 15 16 16 17 17 17 18 18 18 19 19 19 19
8 9 9 9 9 10 10 10 11 11 11 12 12 12 12 12 12 12 12 12 12 12 13 13 14 14 15 15 15 16 16 17 17 17 18 18 19 19 20 20 20 21 21
9 9 10 10 11 11 11 12 12 12 12 13 13 13 13 13 13 13 12 12 12 12 12 13 13 14 14 15 16 16 17 18 18 19 19 20 20 21 21 22 22 22 23
10 11 11 12 12 12 12 13 13 13 13 13 13 13 12 12 12 12 12 12 12 12 12 13 13 14 14 15 15 16 17 17 18 19 20 21 21 22 23 23 24 24 24
11 12 12 13 13 13 13 14 14 14 14 13 13 13 13 13 13 13 13 12 12 13 13 13 13 14 14 15 15 16 16 17 18 19 20 21 22 23 23 24 25 26 26
12 13 13 14 14 14 14 14 14 14 14 13 13 13 13 13 13 13 13 13 13 13 14 14 14 15 15 15 16 16 17 17 18 19 20 21 22 23 24 25 26 26 28
13 13 14 14 14 15 15 15 15 15 14 14 14 14 14 14 14 14 14 14 14 14 14 14 15 15 16 16 16 17 17 18 18 19 20 21 22 23 24 25 26 27 28
14 14 14 15 15 15 16 16 16 16 15 15 15 15 15 15 15 15 15 15 15 15 15 15 16 16 16 17 17 17 18 18 19 19 20 21 22 23 24 25 26 27 28
15 15 15 16 16 16 17 17 17 17 17 17 16 16 16 16 16 16 16 16 16 16 16 16 17 17 17 17 18 18 18 19 19 20 21 21 22 23 24 25 26 27 28
16 16 16 16 17 18 18 19 19 18 18 18 18 18 18 18 18 18 18 18 18 18 18 19 19 19 19 19 20 20 20 21 21 21 22 23 23 24 25 26 27 28 29
17 17 17 18 18 19 19 20 20 20 20 20 20 20 20 20 20 20 21 21 21 21 21 21 22 22 22 22 23 23 23 23 24 24 24 25 25 26 27 27 28 29 30
18 18 19 19 20 20 21 21 22 22 22 23 23 23 23 23 23 24 24 24 24 25 25 25 25 26 26 26 27 27 27 27 27 28 28 28 28 29 29 30 31 31 32
19 20 21 21 21 22 23 23 24 24 25 25 26 26 26 27 27 27 28 28 28 29 29 29 29 30 30 30 31 31 31 32 32 32 32 32 32 33 33 33 34 34 35
21 22 22 22 23 24 24 25 26 27 28 28 29 29 30 30 31 31 32 32 32 33 33 34 34 34 34 34 35 35 36 36 36 36 36 36 36 37 37 37 38 38 38
21 22 23 24 24 25 26 27 29 30 30 31 31 32 33 33 34 35 35 36 36 37 37 38 38 38 38 39 39 39 40 40 40 40 40 40 41 41 41 41 41 42 42
22 23 24 24 25 26 27 28 30 31 32 33 34 34 35 36 37 37 38 39 40 41 41 41 42 42 42 43 43 44 44 44 44 44 44 45 45 45 45 46 46 46 46
22 23 24 25 26 27 28 29 30 32 33 34 35 36 37 38 39 40 41 42 43 44 44 44 45 46 46 47 47 48 48 48 48 48 49 49 49 49 49 50 50 50 50
22 23 24 24 26 27 28 29 31 32 33 34 36 37 38 40 41 42 43 44 45 46 46 47 48 48 49 50 51 51 51 51 52 52 52 52 53 53 53 53 53 53 53
22 23 23 24 25 26 27 29 30 32 33 35 36 38 39 40 42 43 44 45 47 48 48 49 50 51 52 52 53 54 54 54 55 55 55 55 56 56 56 56 56 56 56
23 23 24 24 25 27 28 29 30 32 34 36 37 39 40 42 43 44 45 46 48 49 50 51 52 53 54 55 56 56 57 57 58 58 58 58 59 59 59 59 59 59 59
23 24 25 26 27 28 29 30 32 33 35 36 38 40 42 43 45 46 47 48 50 51 52 53 54 55 56 57 58 58 59 59 59 59 60 60 61 61 62 61 61 61 61
24 25 26 26 28 29 30 32 33 34 36 38 39 41 43 44 46 47 49 50 51 53 54 55 57 58 58 60 61 62 61 60 60 61 62 62 63 63 63 64 64 63 64
26 26 27 28 29 30 31 32 33 35 36 38 40 42 44 46 47 49 51 52 54 55 56 57 59 60 61 62 64 65 65 63 63 63 63 64 64 65 65 66 66 66 66
27 28 29 29 30 31 32 34 35 36 37 39 41 43 45 47 49 51 52 54 56 57 58 60 61 63 64 65 65 67 68 68 68 66 64 65 66 66 67 68 68 68 69
28 28 29 30 32 33 35 36 38 39 41 42 44 46 48 50 52 54 55 57 59 60 61 63 64 66 67 68 69 69 70 71 72 72 69 68 68 68 69 70 70 70 70
30 31 32 33 35 37 38 40 41 43 45 46 48 50 52 54 56 58 60 61 63 64 65 67 68 69 70 71 72 73 74 74 74 75 74 72 71 70 71 71 71 71 72

GEFSSE_500_meanwind_108.txt.gz
Wind_Speed
11 11 12 12 13 13 13 14 14 14 14 14 15 15 15 15 16 16 16 17 17 17 17 17 18 18 18 18 18 18 19 19 19 19 19 19 20 20 20 20 20 20 21
11 11 11 12 12 13 13 13 13 14 14 14 15 15 15 16 16 16 17 17 18 18 18 18 18 18 18 18 19 19 19 20 20 20 21 21 21 21 21 22 22 22 22
11 11 12 12 12 13 13 13 13 14 14 14 15 15 15 16 16 17 17 17 17 18 18 18 18 18 18 18 19 19 20 20 20 21 21 22 22 22 23 23 23 24 24
11 11 11 12 13 13 13 14 14 15 15 15 16 16 16 17 17 17 17 17 17 17 17 17 17 18 18 18 19 19 20 20 21 21 22 23 23 24 24 25 25 25 26
12 12 12 13 13 14 15 15 15 15 16 16 16 16 16 17 17 17 17 17 17 17 17 17 18 18 18 18 19 19 19 20 20 21 21 22 23 24 24 25 26 26 27
13 13 14 14 14 15 15 16 16 16 17 17 16 16 16 17 17 17 18 18 18 18 18 18 18 18 18 18 19 19 19 20 20 21 21 22 22 23 24 25 26 26 27
14 14 15 15 15 15 16 16 16 17 17 17 17 17 18 18 18 18 18 18 18 18 18 18 18 18 19 19 19 19 20 20 21 21 21 22 22 23 24 25 26 26 27
15 15 16 16 16 16 16 17 17 17 18 18 19 19 19 20 20 19 19 19 19 19 19 19 19 19 19 19 20 20 20 20 20 21 21 22 22 23 24 25 25 26 27
16 16 16 17 17 17 17 18 18 19 19 20 20 20 21 21 21 21 21 20 20 21 21 21 21 20 20 20 20 20 20 21 21 21 21 22 22 23 23 24 25 26 27
16 16 16 17 18 18 19 19 20 20 20 21 22 22 22 22 22 22 22 22 22 22 23 23 23 23 23 23 23 23 23 23 23 23 23 23 24 24 24 25 25 26 27
16 16 17 18 18 19 20 20 21 21 21 22 23 23 24 24 24 24 25 25 25 25 25 25 26 26 26 26 26 26 26 26 26 26 26 26 26 26 27 27 27 28 28
17 17 18 18 19 20 21 21 22 22 22 23 24 25 25 26 27 27 27 27 28 28 28 29 29 29 29 30 30 30 30 30 30 30 30 30 30 30 30 30 31 31 31
17 18 18 19 20 20 21 22 23 24 24 25 26 26 27 28 29 29 30 30 31 31 32 32 33 33 33 34 34 34 34 34 35 35 35 35 34 34 34 34 34 35 35
18 18 19 20 20 21 22 23 24 25 26 27 27 28 29 30 31 32 32 33 34 34 35 35 36 36 37 37 38 38 38 39 39 39 39 39 39 39 38 38 38 39 39
19 19 19 20 21 22 23 24 25 26 27 28 28 29 30 31 32 33 34 35 36 37 37 38 38 39 40 40 41 42 42 43 43 43 43 43 43 43 43 43 43 42 42
19 19 20 20 21 22 23 24 25 26 27 28 29 30 31 32 33 34 35 36 37 38 39 40 40 41 42 43 44 45 45 46 46 46 46 47 47 47 47 47 47 47 47
19 20 20 21 22 23 24 25 26 26 27 28 29 30 31 32 33 35 36 37 38 39 40 41 42 43 44 45 46 47 48 49 49 49 50 50 50 50 50 51 51 51 51
20 20 21 22 22 23 24 25 25 26 27 28 29 30 32 33 34 35 36 37 39 40 41 42 43 44 45 46 48 49 50 50 51 52 52 52 52 53 53 54 54 54 54
20 20 21 22 22 23 24 24 25 27 28 29 30 32 33 34 35 36 37 38 40 41 42 43 44 46 47 48 49 51 51 52 53 54 54 55 55 56 56 57 58 58 58
20 21 21 22 23 24 24 25 26 27 29 30 31 33 34 35 36 37 38 40 41 43 44 45 47 48 49 50 52 53 54 55 55 56 57 57 58 58 59 60 60 60 60
21 21 22 23 24 24 25 26 27 28 29 30 32 33 35 36 38 39 40 42 43 44 46 48 49 50 52 53 55 55 56 57 57 58 59 60 61 61 62 63 63 63 63
22 23 23 24 24 25 26 27 28 29 30 32 33 35 37 38 40 41 43 44 46 47 48 50 52 53 54 56 58 59 59 59 60 60 61 62 63 64 64 65 66 66 66
24 24 24 25 25 26 27 28 30 31 33 35 37 38 40 41 43 44 46 47 49 50 52 54 56 57 58 60 61 63 64 64 64 64 64 65 67 68 68 69 69 70 70
25 26 26 27 28 29 30 31 32 34 35 37 38 40 42 44 45 47 49 51 53 54 56 58 60 61 63 64 66 68 70 71 72 71 70 70 70 72 72 73 73 73 73
27 28 28 29 30 31 32 33 35 36 38 39 41 43 45 47 49 51 53 55 57 59 60 62 64 67 68 70 72 74 75 76 78 79 78 77 77 76 76 77 77 78 78
29 30 31 31 32 33 34 36 37 39 41 43 45 46 49 51 53 56 58 60 62 64 66 68 70 72 74 76 78 79 81 81 82 84 84 84 84 83 82 81 81 81 81